When you browse on this site, cookies collect data to enhance your experience and personalize the content and advertising you see.
Visit our Privacy Policy to learn more. By continuing to use the site, you agree to this use of cookies and data.
  • In Hungary
  • List of Countries
  • For 7 days
  • Water Temperature
  • Satellite Maps
  • Weather Map
  • News
  • Weather Widgets
  • user-avatar
    Login

    Hourly Weather Norwich

    Today, 24 January, Thursday

    Time Temperature Precipitation Wind Pressure Humidity
    00:00 -1°C° 0 mm 2 mps 753 mmHg 94%
    01:00 -1°C° 0 mm 3 mps 753 mmHg 93%
    02:00 -1°C° 0 mm 3 mps 753 mmHg 93%
    03:00 -2°C° 0 mm 3 mps 754 mmHg 93%
    04:00 -2°C° 0 mm 3 mps 754 mmHg 90%
    05:00 -2°C° 0 mm 3 mps 754 mmHg 88%
    06:00 -2°C° 0 mm 2 mps 754 mmHg 85%
    07:00 -2°C° 0 mm 2 mps 754 mmHg 82%
    08:00 -2°C° 0 mm 2 mps 754 mmHg 79%
    09:00 -1°C° 0 mm 2 mps 754 mmHg 76%
    10:00 +1°C° 0 mm 2 mps 754 mmHg 75%
    11:00 +2°C° 0 mm 2 mps 755 mmHg 74%
    12:00 +3°C° 0 mm 2 mps 755 mmHg 73%
    13:00 +4°C° 0 mm 2 mps 755 mmHg 76%
    14:00 +4°C° 0 mm 2 mps 755 mmHg 79%
    15:00 +5°C° 0 mm 1 mps 755 mmHg 83%
    16:00 +4°C° 0 mm 1 mps 755 mmHg 86%
    17:00 +3°C° 0 mm 1 mps 756 mmHg 89%
    18:00 +2°C° 0 mm 1 mps 756 mmHg 91%
    19:00 +2°C° 0 mm 1 mps 756 mmHg 92%
    20:00 +2°C° 0 mm 1 mps 757 mmHg 92%
    21:00 +2°C° 0 mm 1 mps 757 mmHg 92%
    22:00 +2°C° 0 mm 1 mps 757 mmHg 92%
    23:00 +2°C° 0 mm 1 mps 757 mmHg 93%

    Tomorrow, 25 January, Friday

    Time Temperature Precipitation Wind Pressure Humidity
    00:00 +1°C° 0 mm 1 mps 757 mmHg 93%
    01:00 -1°C° 0 mm 2 mps 757 mmHg 93%
    02:00 -1°C° 0 mm 2 mps 757 mmHg 93%
    03:00 -1°C° 0 mm 2 mps 757 mmHg 94%
    04:00 -1°C° 0 mm 2 mps 757 mmHg 93%
    05:00 0°C° 0 mm 3 mps 757 mmHg 92%
    06:00 0°C° 0 mm 3 mps 757 mmHg 92%
    07:00 0°C° 0.3 mm 4 mps 756 mmHg 92%
    08:00 0°C° 0.3 mm 4 mps 756 mmHg 93%
    09:00 +1°C° 0.3 mm 5 mps 756 mmHg 93%
    10:00 +2°C° 0.1 mm 5 mps 756 mmHg 93%
    11:00 +5°C° 0.1 mm 5 mps 756 mmHg 92%
    12:00 +6°C° 0.1 mm 5 mps 756 mmHg 91%
    13:00 +6°C° 0 mm 5 mps 756 mmHg 91%
    14:00 +7°C° 0 mm 5 mps 756 mmHg 91%
    15:00 +7°C° 0 mm 5 mps 756 mmHg 92%
    16:00 +7°C° 0 mm 5 mps 756 mmHg 92%
    17:00 +6°C° 0 mm 5 mps 757 mmHg 93%
    18:00 +6°C° 0 mm 5 mps 757 mmHg 94%
    19:00 +6°C° 0 mm 5 mps 757 mmHg 94%
    20:00 +5°C° 0 mm 5 mps 757 mmHg 94%
    21:00 +5°C° 0 mm 5 mps 757 mmHg 94%
    22:00 +4°C° 0 mm 6 mps 757 mmHg 94%
    23:00 +4°C° 0 mm 6 mps 756 mmHg 94%

    Day after tomorrow, 26 January, Saturday

    Time Temperature Precipitation Wind Pressure Humidity
    00:00 +4°C° 0 mm 6 mps 756 mmHg 94%
    01:00 +4°C° 0 mm 6 mps 756 mmHg 94%
    02:00 +4°C° 0 mm 6 mps 756 mmHg 94%
    03:00 +4°C° 0 mm 7 mps 756 mmHg 94%
    04:00 +4°C° 0 mm 6 mps 755 mmHg 94%
    05:00 +4°C° 0 mm 6 mps 755 mmHg 94%
    06:00 +3°C° 0 mm 6 mps 755 mmHg 94%
    07:00 +3°C° 0 mm 6 mps 755 mmHg 94%
    08:00 +3°C° 0 mm 6 mps 754 mmHg 93%
    09:00 +3°C° 0 mm 6 mps 754 mmHg 93%
    10:00 +4°C° 0 mm 6 mps 754 mmHg 90%
    11:00 +5°C° 0 mm 6 mps 753 mmHg 88%
    12:00 +7°C° 0 mm 6 mps 753 mmHg 85%
    13:00 +7°C° 0 mm 6 mps 751 mmHg 86%
    14:00 +7°C° 0 mm 6 mps 750 mmHg 88%
    15:00 +7°C° 0 mm 6 mps 749 mmHg 89%
    16:00 +6°C° 0 mm 7 mps 748 mmHg 87%
    17:00 +6°C° 0 mm 7 mps 747 mmHg 85%
    18:00 +6°C° 0 mm 7 mps 746 mmHg 83%
    19:00 +6°C° 0.6 mm 7 mps 745 mmHg 85%
    20:00 +6°C° 0.6 mm 8 mps 744 mmHg 86%
    21:00 +6°C° 0.6 mm 8 mps 742 mmHg 88%
    22:00 +5°C° 0 mm 7 mps 742 mmHg 87%
    23:00 +4°C° 0 mm 7 mps 741 mmHg 86%

    27 January, Sunday

    Time Temperature Precipitation Wind Pressure Humidity
    00:00 +4°C° 0 mm 6 mps 740 mmHg 85%
    01:00 +3°C° 0 mm 6 mps 739 mmHg 85%
    02:00 +3°C° 0 mm 6 mps 738 mmHg 84%
    03:00 +3°C° 0 mm 6 mps 736 mmHg 84%
    04:00 +3°C° 0.1 mm 6 mps 735 mmHg 85%
    05:00 +3°C° 0.1 mm 5 mps 734 mmHg 87%
    06:00 +3°C° 0.1 mm 5 mps 733 mmHg 88%
    07:00 +4°C° 0.3 mm 4 mps 733 mmHg 89%
    08:00 +4°C° 0.3 mm 3 mps 733 mmHg 90%
    09:00 +5°C° 0.3 mm 2 mps 733 mmHg 92%
    10:00 +5°C° 0 mm 2 mps 733 mmHg 90%
    11:00 +5°C° 0 mm 3 mps 733 mmHg 87%
    12:00 +7°C° 0 mm 3 mps 734 mmHg 85%
    13:00 +6°C° 0.1 mm 4 mps 734 mmHg 85%
    14:00 +6°C° 0.1 mm 5 mps 734 mmHg 84%
    15:00 +5°C° 0.1 mm 6 mps 734 mmHg 83%
    16:00 +4°C° 0.1 mm 6 mps 735 mmHg 84%
    17:00 +4°C° 0.1 mm 6 mps 736 mmHg 85%
    18:00 +4°C° 0.1 mm 6 mps 737 mmHg 86%
    19:00 +4°C° 0.1 mm 7 mps 738 mmHg 85%
    20:00 +4°C° 0.1 mm 8 mps 739 mmHg 84%
    21:00 +3°C° 0.1 mm 9 mps 740 mmHg 83%
    22:00 +3°C° 0.2 mm 10 mps 740 mmHg 79%
    23:00 +2°C° 0.2 mm 12 mps 741 mmHg 76%

    28 January, Monday

    Time Temperature Precipitation Wind Pressure Humidity
    00:00 +1°C° 0.2 mm 13 mps 742 mmHg 73%
    01:00 +1°C° 0.2 mm 13 mps 743 mmHg 71%
    02:00 +2°C° 0.2 mm 12 mps 744 mmHg 70%
    03:00 +2°C° 0.2 mm 12 mps 745 mmHg 68%
    04:00 +2°C° 0.1 mm 12 mps 746 mmHg 67%
    05:00 +1°C° 0.1 mm 11 mps 747 mmHg 67%
    06:00 +1°C° 0.1 mm 11 mps 748 mmHg 66%
    07:00 +1°C° 0.1 mm 10 mps 749 mmHg 68%
    08:00 +1°C° 0.1 mm 9 mps 749 mmHg 69%
    09:00 +1°C° 0.1 mm 9 mps 750 mmHg 71%
    10:00 +1°C° 0.1 mm 9 mps 751 mmHg 70%
    11:00 0°C° 0.1 mm 9 mps 751 mmHg 70%
    12:00 0°C° 0.1 mm 9 mps 752 mmHg 70%
    13:00 0°C° 0 mm 8 mps 752 mmHg 68%
    14:00 0°C° 0 mm 8 mps 752 mmHg 67%
    15:00 0°C° 0 mm 7 mps 752 mmHg 65%
    16:00 -1°C° 0 mm 6 mps 752 mmHg 67%
    17:00 -1°C° 0 mm 5 mps 753 mmHg 69%
    18:00 -2°C° 0 mm 4 mps 753 mmHg 71%
    19:00 -1°C° 0 mm 4 mps 752 mmHg 72%
    20:00 -1°C° 0 mm 4 mps 752 mmHg 72%
    21:00 -1°C° 0 mm 4 mps 752 mmHg 73%
    22:00 0°C° 0.1 mm 4 mps 752 mmHg 77%
    23:00 0°C° 0.1 mm 5 mps 751 mmHg 81%

    29 January, Tuesday

    Time Temperature Precipitation Wind Pressure Humidity
    00:00 +1°C° 0.1 mm 6 mps 751 mmHg 85%
    01:00 -1°C° 0 mm 6 mps 751 mmHg 83%
    02:00 -1°C° 0 mm 6 mps 751 mmHg 82%
    03:00 -2°C° 0 mm 6 mps 750 mmHg 81%
    04:00 -2°C° 0 mm 6 mps 750 mmHg 82%
    05:00 -2°C° 0 mm 6 mps 750 mmHg 83%
    06:00 -2°C° 0 mm 6 mps 750 mmHg 84%
    07:00 -2°C° 0 mm 6 mps 750 mmHg 83%
    08:00 -2°C° 0 mm 6 mps 750 mmHg 82%
    09:00 -1°C° 0 mm 6 mps 750 mmHg 81%
    10:00 -1°C° 0 mm 7 mps 750 mmHg 76%
    11:00 0°C° 0 mm 7 mps 750 mmHg 71%
    12:00 +1°C° 0 mm 8 mps 749 mmHg 65%
    13:00 +1°C° 0.2 mm 8 mps 749 mmHg 67%
    14:00 +2°C° 0.2 mm 7 mps 748 mmHg 68%
    15:00 +2°C° 0.2 mm 7 mps 748 mmHg 70%
    16:00 0°C° 0.2 mm 7 mps 747 mmHg 72%
    17:00 -1°C° 0.2 mm 6 mps 747 mmHg 75%
    18:00 -1°C° 0.2 mm 6 mps 747 mmHg 77%
    19:00 -2°C° 0 mm 6 mps 747 mmHg 78%
    20:00 -2°C° 0 mm 6 mps 747 mmHg 80%
    21:00 -2°C° 0 mm 5 mps 747 mmHg 81%
    22:00 -2°C° 0 mm 5 mps 746 mmHg 83%
    23:00 -2°C° 0 mm 4 mps 745 mmHg 84%
    Show more